This demonstration page uses our WeatherBlox Daily Observations layout. Learn more.

Left ArrowRight Arrow

34.74481, -87.66753

Hourly Observations for December 17, 2020

Temp ( °F °C ) Dew Point ( °F °C ) Humidity (%) Winds ( mph kmh ) Pressure ( in mb ) Visibility ( mi km ) Precip ( " mm )
12:53 am 00:53 Cloudy 36 2.2 25 -3.9 64 64 NW 6 9 30.10 1019 10 16 0.00 0.00
1:53 am 01:53 Cloudy 36 2.2 25 -3.9 64 64 WNW 8 13 30.11 1020 10 16 0.00 0.00
2:53 am 02:53 Cloudy 36 2.2 25 -3.9 64 64 WNW 7 11 30.12 1020 10 16 0.00 0.00
3:53 am 03:53 Cloudy 36 2.2 25 -3.9 64 64 NW 9 15 30.12 1020 10 16 0.00 0.00
4:38 am 04:38 Cloudy 36 2.2 22 -5.6 57 57 NW 7 11 30.15 1021 10 16 0.00 0.00
4:53 am 04:53 Cloudy 36 2.2 21 -6.1 55 55 NW 6 9 30.14 1021 10 16 0.00 0.00
5:53 am 05:53 Cloudy 35 1.7 21 -6.1 57 57 VRB 6 9 30.16 1022 10 16 0.00 0.00
6:53 am 06:53 Mostly Sunny 33 0.6 21 -6.1 61 61 NW 3 6 30.19 1022 10 16 0.00 0.00
7:53 am 07:53 Partly Cloudy 34 1.1 23 -5 64 64 WNW 5 7 30.21 1023 10 16 0.00 0.00
8:53 am 08:53 Mostly Sunny 37 2.8 24 -4.4 59 59 WNW 6 9 30.23 1024 9 14 0.00 0.00
9:53 am 09:53 Sunny 39 3.9 23 -5 53 53 NW 7 11 30.24 1024 10 16 0.00 0.00
10:53 am 10:53 Mostly Cloudy 40 4.4 24 -4.4 53 53 WNW 10 17 30.23 1024 10 16 0.00 0.00
11:06 am 11:06 Partly Cloudy 41 5 24 -4.4 51 51 NW 8 13 30.24 1024 10 16 0.00 0.00
11:53 am 11:53 Partly Cloudy 41 5 23 -5 49 49 WNW 8 13 30.21 1023 10 16 0.00 0.00
12:53 pm 12:53 Mostly Sunny 42 5.6 23 -5 47 47 NW 13 20 30.21 1023 10 16 0.00 0.00
1:53 pm 13:53 Sunny 43 6.1 22 -5.6 43 43 NNW 9 15 30.20 1023 10 16 0.00 0.00
2:53 pm 14:53 Sunny 44 6.7 20 -6.7 38 38 WNW 14 22 30.22 1023 10 16 0.00 0.00
3:53 pm 15:53 Sunny 42 5.6 20 -6.7 41 41 WNW 12 19 30.24 1024 10 16 0.00 0.00
4:53 pm 16:53 Clear 39 3.9 21 -6.1 48 48 WNW 6 9 30.26 1025 10 16 0.00 0.00
5:53 pm 17:53 Clear 38 3.3 21 -6.1 51 51 Calm 30.27 1025 10 16 0.00 0.00
6:53 pm 18:53 Clear 34 1.1 22 -5.6 61 61 Calm 30.27 1025 10 16 0.00 0.00
7:53 pm 19:53 Clear 33 0.6 23 -5 66 66 WSW 3 6 30.29 1026 10 16 0.00 0.00
8:53 pm 20:53 Clear 31 -0.6 23 -5 72 72 Calm 30.31 1026 10 16 0.00 0.00
9:53 pm 21:53 Clear 31 -0.6 23 -5 72 72 Calm 30.32 1027 9 14 0.00 0.00
10:53 pm 22:53 Clear 29 -1.7 23 -5 78 78 Calm 30.34 1027 9 14 0.00 0.00
11:53 pm 23:53 Clear 29 -1.7 22 -5.6 75 75 Calm 30.34 1027 8 13 0.00 0.00

Powered by AerisWeather